Location: Christchurch
(43.5330°S, 172.6330°E)
Time: 19:15:24
(UTC+13:00)

Resurs 01 Rocket - Pass Details

Date: 24 January 2019
Orbit: 635 x 643 km, 98.1° (Epoch: 17 February)

Event Time Altitude Azimuth Distance (km) Brightness Sun altitude
Rises 23:11:45 0° 174° (S) 2,983 5.8 -18.5°
Reaches altitude 10° 23:14:04 10° 181° (S) 2,064 5.0 -18.7°
Maximum altitude 23:18:17 41° 250° (WSW) 948 2.9 -19.2°
Drops below altitude 10° 23:22:26 10° 319° (NW) 2,035 4.1 -19.6°
Enters shadow 23:23:17 - 323° (NW) 2,367 4.4 -19.7°
